Location: Góry Miechowskie
(50.3599°N, 20.1803°E)
Time: 08:32:22
(UTC+00:00)

Cosmos 1461 - Pass Details

Date: 21 September 2024
Orbit: 489 x 565 km, 65.0° (Epoch: 12 October)

Event Time Altitude Azimuth Distance (km) Brightness Sun altitude
Rises 03:33:00 0° 324° (NW) 2,588 6.0 -9.0°
Reaches altitude 10° 03:35:34 10° 341° (NNW) 1,712 5.3 -8.6°
Maximum altitude 03:38:30 21° 31° (NNE) 1,195 5.1 -8.1°
Drops below altitude 10° 03:41:28 10° 82° (E) 1,736 7.2 -7.7°
Sets 03:44:05 0° 99° (E) 2,637 7.9 -7.2°
